Location: Glens Falls
(43.3090°N, 73.6440°W)
Time: 11:33:04
(UTC-04:00)

Cosmos 1048 Rocket - Pass Details

Date: 24 February 2018
Orbit: 743 x 793 km, 74.0° (Epoch: 22 June)

Event Time Altitude Azimuth Distance (km) Brightness Sun altitude
Rises 17:56:26 0° 179° (S) 3,263 7.4 -4.3°
Reaches altitude 10° 17:58:55 10° 172° (S) 2,333 6.5 -4.7°
Maximum altitude 18:03:53 42° 103° (ESE) 1,108 4.4 -5.6°
Drops below altitude 10° 18:08:48 10° 34° (NE) 2,319 6.1 -6.5°
Sets 18:11:16 0° 27° (NNE) 3,242 6.9 -6.9°
